Flag for Russia Weather past 2 weeks in Khabarovsk, Russia

Now
39 °F

Overcast.


Feels Like: 39 °F
Forecast: 29 / 46 °F
Wind: 1 mph from North

Location: Habarovsk

Current Time: May 7, 2015 at 1:45:37 PM

Latest Report: May 7, 2015 at 1:00 PM


Visibility: N/A

Pressure: 29.83 "Hg

Humidity: 65%

Dew point: 28 °F

Location of KhabarovskLocation

Historic Weather in Khabarovsk — Graph

°F

Khabarovsk temperature yesterday

Maximum temperature yesterday: 41 °F (at 4:00 PM)
Minimum temperature yesterday: 32 °F (at 4:00 AM)
Average temperature yesterday: 36 °F

Past Weeks' High & Low Weather Summary

 TemperatureHumidityPressure
High75 °F (Apr 30, 12:30 PM)100% (Apr 24, 12:30 AM)30.07 "Hg (Apr 24, 12:30 AM)
Low32 °F (Apr 25, 5:30 AM)12% (Apr 30, 6:00 PM)29.33 "Hg (May 5, 11:30 AM)
Average47 °F71%29.68 "Hg
* Reported Apr 22 12:00 Noon — May 7 12:00 Noon, Khabarovsk, Weather by CustomWeather, © 2015

Note: Actual official high and low records may vary slightly from our data, if they occured in-between our weather recording intervals... More about our weather records

Advertising

Khabarovsk weather history for previous 24 hours

 ConditionsComfort  
Time TempWeatherWind HumidityBarometerVisibility
12:00 PM
Thu, May 7
39 °FOvercast.8 mph81%29.80 "HgN/A
11:30 AM39 °FPartly sunny.8 mph70%29.80 "HgN/A
11:00 AM37 °FPartly sunny.8 mph75%29.80 "HgN/A
10:30 AM37 °FBroken clouds.8 mph75%29.77 "HgN/A
10:00 AM36 °FSprinkles. Broken clouds.6 mph87%29.77 "HgN/A
9:30 AM34 °FSnow flurries. Partly sunny.6 mph93%29.74 "Hg5 mi
9:00 AM34 °FSnow showers. More clouds than sun.3 mph87%29.74 "Hg3 mi
8:30 AM34 °FSnow flurries. More clouds than sun.3 mph93%29.74 "Hg5 mi
8:00 AM34 °FSnow flurries. More clouds than sun.6 mph93%29.71 "Hg2 mi
7:00 AM34 °FSnow flurries. Mostly cloudy.8 mph93%29.71 "Hg4 mi
6:30 AM34 °FMostly cloudy.6 mph87%29.68 "HgN/A
6:00 AM34 °FChilly.N/A93%29.68 "HgN/A
5:30 AM36 °FMostly cloudy.6 mph93%29.68 "HgN/A
5:00 AM36 °FOvercast.3 mph93%29.68 "HgN/A
4:30 AM36 °FMostly cloudy.3 mph93%29.68 "HgN/A
4:00 AM36 °FMostly cloudy.1 mph93%29.68 "HgN/A
3:30 AM36 °FMostly cloudy.3 mph93%29.68 "HgN/A
3:00 AM37 °FSprinkles. Mostly cloudy.3 mph93%29.68 "HgN/A
2:30 AM37 °FSprinkles. Mostly cloudy.No wind93%29.68 "HgN/A
2:00 AM37 °FMostly cloudy.No wind93%29.68 "HgN/A
1:30 AM37 °FMostly cloudy.No wind93%29.68 "HgN/A
1:00 AM37 °FMostly cloudy.No wind93%29.68 "HgN/A
12:30 AM37 °FMostly cloudy.1 mph93%29.68 "HgN/A
12:00 AM37 °FSprinkles. Mostly cloudy.1 mph93%29.68 "HgN/A
11:30 PM
Wed, May 6
39 °FOvercast.1 mph87%29.68 "HgN/A
11:00 PM39 °FMostly cloudy.1 mph87%29.68 "HgN/A
10:30 PM39 °FMostly cloudy.3 mph87%29.68 "HgN/A
10:00 PM39 °FMostly cloudy.1 mph87%29.68 "HgN/A
9:30 PM39 °FMostly cloudy.No wind81%29.68 "HgN/A
9:00 PM39 °FMore clouds than sun.1 mph81%29.68 "HgN/A
8:30 PM39 °FMostly cloudy.No wind81%29.65 "HgN/A
8:00 PM41 °FMostly cloudy.3 mph76%29.65 "HgN/A
7:30 PM41 °FMostly cloudy.No wind76%29.65 "HgN/A
7:00 PM41 °FMostly cloudy.3 mph76%29.65 "HgN/A
6:30 PM41 °FOvercast.3 mph76%29.62 "HgN/A
6:00 PM41 °FOvercast.3 mph76%29.62 "HgN/A
5:30 PM41 °FOvercast.1 mph70%29.59 "HgN/A
5:00 PM41 °FOvercast.No wind70%29.59 "HgN/A
4:30 PM41 °FSprinkles. Overcast.1 mph70%29.56 "HgN/A
4:00 PM41 °FSprinkles. Overcast.3 mph70%29.56 "HgN/A
3:30 PM39 °FSprinkles. Overcast.3 mph70%29.53 "HgN/A
3:00 PM39 °FOvercast.3 mph70%29.53 "HgN/A
2:30 PM39 °FOvercast.6 mph70%29.53 "HgN/A
1:30 PM36 °FSprinkles. More clouds than sun.8 mph93%29.50 "HgN/A
1:00 PM36 °FSprinkles. More clouds than sun.6 mph93%29.50 "HgN/A
Weather by CustomWeather, © 2015

See weather overviewHow to use our weather pages